This is the latest recevied weather packets stored in our database for station/object 5B4APJ-13. If no packets are shown the sender has not sent any weather packets the latest 1 day(s).
| Time | Temp. | Humidity | Pressure | Rain* | Wind** | Luminosity | Snow |
|---|---|---|---|---|---|---|---|
| 1778035622 | 11.11° C | 74% | 1015.1 hPa | 0 mm | 0.89 m/s, 245° | 2 W/m² | - |
| 1778035322 | 11.11° C | 74% | 1015 hPa | 0 mm | 0.89 m/s, 248° | 1 W/m² | - |
| 1778035022 | 11.11° C | 74% | 1015.1 hPa | 0 mm | 0.89 m/s, 262° | 0 W/m² | - |
| 1778034722 | 11.11° C | 73% | 1015.2 hPa | 0 mm | 0.89 m/s, 250° | 0 W/m² | - |
| 1778034422 | 11.11° C | 73% | 1015.1 hPa | 0 mm | 0.45 m/s, 263° | 0 W/m² | - |
| 1778033822 | 11.11° C | 72% | 1015 hPa | 0 mm | 0.89 m/s, 281° | 0 W/m² | - |
| 1778033522 | 11.11° C | 72% | 1015.1 hPa | 0 mm | 1.34 m/s, 262° | 0 W/m² | - |
| 1778033222 | 11.11° C | 71% | 1014.7 hPa | 0 mm | 0.89 m/s, 257° | 0 W/m² | - |
| 1778032922 | 11.11° C | 71% | 1015 hPa | 0 mm | 1.34 m/s, 246° | 0 W/m² | - |
| 1778032622 | 11.11° C | 70% | 1014.9 hPa | 0 mm | 1.34 m/s, 257° | 0 W/m² | - |
| 1778032322 | 11.11° C | 70% | 1015.2 hPa | 0 mm | 0.89 m/s, 258° | 0 W/m² | - |
| 1778031722 | 11.11° C | 70% | 1014.8 hPa | 0 mm | 1.34 m/s, 269° | 0 W/m² | - |
| 1778031122 | 11.11° C | 71% | 1014.6 hPa | 0 mm | 0.89 m/s, 260° | 0 W/m² | - |
| 1778030222 | 11.11° C | 71% | 1014.7 hPa | 0 mm | 1.34 m/s, 266° | 0 W/m² | - |
| 1778029322 | 11.11° C | 72% | 1014.6 hPa | 0 mm | 1.34 m/s, 247° | 0 W/m² | - |
| 1778029022 | 11.11° C | 72% | 1014.5 hPa | 0 mm | 0.89 m/s, 250° | 0 W/m² | - |
| 1778028723 | 11.11° C | 72% | 1014.6 hPa | 0 mm | 0.89 m/s, 253° | 0 W/m² | - |
| 1778028423 | 11.11° C | 72% | 1014.6 hPa | 0 mm | 1.79 m/s, 258° | 0 W/m² | - |
| 1778027523 | 10.56° C | 73% | 1014.4 hPa | 0 mm | 2.24 m/s, 241° | 0 W/m² | - |
| 1778026323 | 11.11° C | 73% | 1014.9 hPa | 0 mm | 1.79 m/s, 246° | 0 W/m² | - |
| 1778026023 | 11.11° C | 72% | 1014.8 hPa | 0 mm | 1.34 m/s, 250° | 0 W/m² | - |
| 1778023622 | 10° C | 68% | 1014.8 hPa | 0 mm | 0 m/s | 0 W/m² | - |
| 1778023322 | 10° C | 65% | 1014.8 hPa | 0 mm | 0 m/s | 0 W/m² | - |
| 1778023022 | 9.44° C | 65% | 1014.8 hPa | 0 mm | 0.45 m/s, 180° | 0 W/m² | - |
| 1778022422 | 10° C | 67% | 1014.8 hPa | 0 mm | 0 m/s | 0 W/m² | - |
* Rain latest hour (hover to see other rain measurements)
** Current wind speed in m/s (hover to see current wind gust speed)